sat.trackr.live / text

‹ back to catalog

STARLINK-34335

NORAD 64362 · 2025-126U

PAYLOAD ACTIVE UNKNOWN

§ Identity

Operator
Country
US
Launch date
2025-06-13
Launch site
AFWTR
Launch vehicle
Mass (kg)
RCS (m²)

Purposes: comms

External: N2YO · Heavens-Above · Gunter

§ Orbital elements

Epoch: 2026-05-25T02:55:31.522368Z

Period
96.11 min
Inclination
70.0004°
Eccentricity
0.0003864
Mean motion
14.98336582 rev/d
Perigee alt
569.3 km
Apogee alt
574.7 km
Semi-major
6,950.2 km
B*
1.7772e-4
RAAN
201.6239°
Arg perigee
266.0091°
Mean anomaly
94.0626°
Rev number
5,213

§ Raw data

STARLINK-343351 64362U 25126U   26145.12189262  .00002028  00000+0  17772-3 0  99942 64362  70.0004 201.6239 0003864 266.0091  94.0626 14.98336582 52139

JSON: /api/v1/satellites/64362 · /tle

For live sub-satellite position, see the globe view (requires WebGL).

§ Visibility from observer

Set your observer location to see the next 7 days of passes ≥ 10°. The values pass through the URL so the page stays shareable.

No JS? Fill the form by hand. The geolocation button needs JavaScript.